sat.trackr.live / text

‹ back to catalog

STARLINK-11150 [DTC]

NORAD 60406 · 2024-141J

PAYLOAD ACTIVE UNKNOWN

§ Identity

Operator
Country
US
Launch date
2024-08-10
Launch site
AFETR
Launch vehicle
Mass (kg)
RCS (m²)

Purposes: comms

External: N2YO · Heavens-Above · Gunter

§ Orbital elements

Epoch: 2026-09-21T02:40:47.239104Z

Period
91.74 min
Inclination
53.1601°
Eccentricity
0.0001131
Mean motion
15.69708626 rev/d
Perigee alt
359.0 km
Apogee alt
360.5 km
Semi-major
6,737.9 km
B*
9.5836e-6
RAAN
203.0835°
Arg perigee
87.4944°
Mean anomaly
272.6204°
Rev number
12,243

§ Raw data

STARLINK-11150 [DTC]1 60406U 24141J   26264.11165786  .00000572  00000+0  95836-5 0  99922 60406  53.1601 203.0835 0001131  87.4944 272.6204 15.69708626122432

JSON: /api/v1/satellites/60406 · /tle

For live sub-satellite position, see the globe view (requires WebGL).

§ Visibility from observer

Set your observer location to see the next 7 days of passes ≥ 10°. The values pass through the URL so the page stays shareable.

No JS? Fill the form by hand. The geolocation button needs JavaScript.